Regional Weather Roundup
Issued by NWS Charleston, SC

Current Version | Previous Version | Text Only | Print | Product List | Glossary Off
Versions: 1 2 3 4 5 6 7 8 9 10 11 12 13 14 15 16 17 18 19 20 21 22 23 24 25 26 27 28 29 30 31 32 33 34 35 36 37 38 39 40 41 42 43 44 45 46 47 48 49 50

000
ASUS42 KCHS 222310
RWRCHS
REGIONAL WEATHER ROUNDUP
NATIONAL WEATHER SERVICE CHARLESTON SC
700 PM EDT FRI AUG 22 2014

NOTE: "FAIR" INDICATES FEW OR NO CLOUDS BELOW 12,000 FEET WITH NO
SIGNIFICANT WEATHER AND/OR OBSTRUCTIONS TO VISIBILITY.

NOT ALL STATIONS ARE QUALITY CONTROLLED BY THE NATIONAL
WEATHER SERVICE. USE DATA WITH CAUTION...ESPECIALLY
DEWPOINT OBSERVATIONS.

SCZ027-030-031-034>040-042>050-230000-
...SOUTH CAROLINA...

CITY           SKY/WX    TMP DP  RH WIND       PRES   REMARKS
N CHARLESTON   MOSUNNY   94  78  60 S8        29.94S HX 110
WATERFRONT PRK   N/A     91 N/A N/A S7          N/A
FORT JOHNSON   NOT AVBL
MOUNT PLEASANT FAIR      90  81  74 S5        29.94R HX 108
JOHNS ISLAND   CLEAR     90  81  74 S8        29.94S HX 108
PINOPOLIS        N/A    100  73  41 CALM      29.86R HX 111
MONCKS CORNER    N/A     93  82  70 CALM      29.93S HX 117
SUMMERVILLE    FAIR      95  75  52 CALM      29.94S HX 107
BEAUFORT MCAS  SUNNY     94  73  50 W7        29.94S HX 103
BEAUFORT ARPT  FAIR      90  79  70 S7        29.94S HX 105
HILTON HEAD IS SUNNY     90  81  74 S7        29.97S HX 108
GEORGETOWN     NOT AVBL
WALTERBORO     CLEAR     95  63  34 W5        29.94S HX  96
ORANGEBURG     MOSUNNY   94  69  44 E5        29.94F HX  99
BARNWELL       FAIR      97  70  41 SW7       29.95S HX 103
AIKEN          FAIR      95  68  41 W5        30.00R HX  99
MANNING        FAIR      91  77  62 CALM      29.93F HX 105
KINGSTREE      NOT AVBL
COLUMBIA       MOSUNNY   98  64  32 N3        29.93F HX 100
SUMTER         SUNNY     94  69  42 N5        29.93F HX  99
FLORENCE       MOSUNNY   94  69  44 W5        29.93S HX  99
MYRTLE BEACH   MOSUNNY   90  79  70 S12       29.94S HX 105
N MYRTLE BEACH MOSUNNY   87  78  74 S12       29.94S HX 100

$$

GAZ063-065-086>088-099>101-113>116-118-119-134-136>141-150-230000-
...GEORGIA...

CITY           SKY/WX    TMP DP  RH WIND       PRES   REMARKS
SAVANNAH ARPT  MOSUNNY   97  69  40 CALM      29.95S HX 103
HUNTER AAF     SUNNY     92  77  60 SE7       29.94R HX 106
FORT STEWART   SUNNY     97  67  38 W5        29.94S HX 101
STATESBORO     NOT AVBL
SYLVANIA       CLEAR     95  74  49 W3        29.96S HX 105
CLAXTON        FAIR      97  73  46 CALM      29.96R HX 107
THOMSON        MOSUNNY   95  77  55 W3        30.01R HX 109
AUGUSTA-BUSH   MOSUNNY   97  68  38 W8        29.94S HX 102
AUGUSTA-DANIEL SUNNY     97  68  38 NW6       29.96S HX 102
SWAINSBORO     FAIR      99  70  39 NW6       29.98R HX 105
VIDALIA          N/A     95  72  46 W5        29.98S HX 103
ALMA           SUNNY     95  70  44 W5        29.97S HX 101
WAYCROSS       SUNNY     99  73  42 CALM      29.97S HX 109
JESUP            N/A     95  79  59 CALM      29.97S HX 112
BRUNSWICK      SUNNY     93  75  55 SE8       29.98R HX 104
SAINT SIMONS   SUNNY     88  78  72 SE7       29.97S HX 101

$$

SCZ027-028-034-036>038-045-046-048>050-GAZ119-141-230000-
...LAKE AND SUPPLEMENTAL COASTAL OBSERVATIONS...

STATION/POSITION TIME  TEMP    WIND        PRES    WAVE   SWELL
                       AIR SEA DIR/SP/G            HT/PER HT/PER/DIR
                 (UTC) (F)     (DEG/KT/KT) (MB)    (FT/S) (FT/S/D)
UPR LAKE MARION  NOT AVBL
WINYAH BAY       2200   91     190/ 12     1013.0F
LAKE MURRAY      2200   96      CALM  /  1 1013.2S
ACE BASIN NERRS  2200   93        CALM     1015.0S
FORT PULASKI     2300   89     180/  4/  7 1014.8R
SAPELO ISLAND    2200   93     140/  6     1015.0S

$$

ANZ835-935-AMZ111-154-330-350-352-354-374-450-454-472-230000-
...C-MAN AND BUOY OBSERVATIONS...

STATION/POSITION TIME  TEMP    WIND        PRES    WAVE   SWELL
                       AIR SEA DIR/SP/G            HT/PER HT/PER/DIR
                 (UTC) (F)     (DEG/KT/KT) (MB)    (FT/S) (FT/S/D)
FOLLY BEACH CMAN 2200   88     200/ 11/ 13 1014.3F
BUOY 41004       2300   86 86  190/ 12/ 14 1013.6F   2/ 3   2/ 8
BUOY 41008       2300   86 87  170/ 10/ 12 1014.5F   1/ 8
5E ST. MARYS GA  2200      85                N/A     1/ 9
FRYING PAN BUOY  NOT AVBL
BUOY 41025       2300   81     350/  8/ 10 1012.9S   2/ 8   2/ 30/ 8
CAPE LOOKOUT NC  2200   86     240/  9/ 11 1013.2F
BUOY 41002       2235   82 83  250/ 12/ 16 1015.3F   2/ 5   2/150/ 8
BUOY 41010       2300   85 86  200/  4/  6 1016.1R   2/ 9   2/ 70/ 9
BUOY 41012       NOT AVBL
ST AUGUSTINE FL  2300   83     170/  6/  7 1016.2F
CAPERS NEARSHORE 2200   88     210/ 12/ 14   N/A
FRIPP NEARSHORE  NOT AVBL


$$



USA.gov is the U.S. government's official web portal to all federal, state and local government web resources and services.